This is the latest recevied weather packets stored in our database for station/object KC0AFB. If no packets are shown the sender has not sent any weather packets the latest 10 day(s).
| Time | Temp. | Humidity | Pressure | Rain* | Wind** | Luminosity | Snow |
|---|---|---|---|---|---|---|---|
| 1778140684 | -2.22° C | 72% | 1011.5 hPa | 0 mm | - | 0 W/m² | - |
| 1778140381 | -2.22° C | 71% | 1011.8 hPa | 0 mm | - | 0 W/m² | - |
| 1778140077 | -1.11° C | 69% | 1011.7 hPa | 0 mm | - | 0 W/m² | - |
| 1778139775 | -1.11° C | 69% | 1011.8 hPa | 0 mm | - | 0 W/m² | - |
| 1778139472 | -1.11° C | 69% | 1011.7 hPa | 0 mm | - | 0 W/m² | - |
| 1778139168 | -1.67° C | 70% | 1011.8 hPa | 0 mm | - | 0 W/m² | - |
| 1778138866 | -2.22° C | 70% | 1011.7 hPa | 0 mm | - | 0 W/m² | - |
| 1778138563 | -1.11° C | 68% | 1011.7 hPa | 0 mm | - | 0 W/m² | - |
| 1778138261 | -0.56° C | 67% | 1011.6 hPa | 0 mm | - | 0 W/m² | - |
| 1778137957 | 0° C | 65% | 1011.7 hPa | 0 mm | - | 0 W/m² | - |
| 1778137654 | 0° C | 65% | 1011.8 hPa | 0 mm | - | 0 W/m² | - |
| 1778137350 | 0° C | 65% | 1011.7 hPa | 0 mm | - | 0 W/m² | - |
| 1778137047 | 0° C | 65% | 1011.7 hPa | 0 mm | - | 0 W/m² | - |
| 1778136744 | 0.56° C | 64% | 1011.9 hPa | 0 mm | - | 0 W/m² | - |
| 1778136441 | 0.56° C | 64% | 1012 hPa | 0 mm | - | 0 W/m² | - |
| 1778136135 | 1.11° C | 62% | 1011.7 hPa | 0 mm | - | 0 W/m² | - |
| 1778135831 | 1.11° C | 62% | 1011.8 hPa | 0 mm | - | 0 W/m² | - |
| 1778135528 | 1.11° C | 63% | 1012.2 hPa | 0 mm | - | 0 W/m² | - |
| 1778135225 | 1.11° C | 62% | 1011.9 hPa | 0 mm | - | 0 W/m² | - |
| 1778134923 | 1.11° C | 62% | 1011.9 hPa | 0 mm | - | 0 W/m² | - |
| 1778134621 | 1.11° C | 62% | 1011.8 hPa | 0 mm | - | 0 W/m² | - |
| 1778134318 | 1.11° C | 63% | 1011.9 hPa | 0 mm | - | 0 W/m² | - |
| 1778134016 | 0.56° C | 63% | 1012 hPa | 0 mm | - | 0 W/m² | - |
| 1778133712 | 1.11° C | 62% | 1012.1 hPa | 0 mm | - | 0 W/m² | - |
| 1778133408 | 1.11° C | 62% | 1011.7 hPa | 0 mm | - | 0 W/m² | - |
* Rain latest hour (hover to see other rain measurements)
** Current wind speed in m/s (hover to see current wind gust speed)